User: anonymous   Login
Location: Unspecified
(0.0000°N, 0.0000°E)
Time: 11:07:25
(UTC+00:00)
Language:

BEESAT 3 - Orbit

View from above orbital plane
View from above orbital plane
View from above satellite
View from above satellite

Ground track
Ground track

The orbit data is extracted from the following two-line orbital elements,

1 39134U 13015E   19348.93793400  .00000887  00000-0  49108-4 0  9999
2 39134  64.8616 159.5470 0037816 273.9540  85.7265 15.20571837367849
Epoch (UTC): 14 December 2019 22:30:37
Eccentricity: 0.0037816
inclination: 64.8616°
perigee height: 478 km
apogee height: 530 km
right ascension of ascending node: 159.5470°
argument of perigee: 273.9540°
revolutions per day: 15.20571837
mean anomaly at epoch: 85.7265°
orbit number at epoch: 36784

The dashed part of the orbit path shows where the satellite is in the earth's shadow,  

DLR